Home   Weather   Stockerau   Past weeks

Flag for Austria Past Weather in Stockerau, Lower Austria, Austria — Yesterday and Last 2 Weeks

Now
25 °F

Passing clouds.


Feels Like: 25 °F
Forecast: 12 / 24 °F
Wind: 2 mph from North

Location: Tulln Airport

Current Time: Jan 19, 2017 at 4:12:18 pm

Latest Report: Jan 19, 2017 at 3:20 pm


Visibility: 4 mi

Pressure: 30.63 "Hg

Humidity: 74%

Dew Point: 18 °F

Location of StockerauLocation

Past Weather in Stockerau — Graph

°F

Stockerau Temperature Yesterday

Maximum temperature yesterday: 28 °F (at 4:50 am)
Minimum temperature yesterday: 19 °F (at 9:50 pm)
Average temperature yesterday: 27 °F

High & Low Weather Summary for the Past Weeks

 TemperatureHumidityPressure
High43 °F (Jan 12, 1:20 pm)93% (Jan 8, 5:50 am)30.69 "Hg (Jan 8, 5:50 am)
Low7 °F (Jan 11, 8:20 am)42% (Jan 7, 12:50 pm)29.42 "Hg (Jan 13, 4:50 am)
Average27 °F75%30.17 "Hg
* Reported Jan 4 2:50 pm — Jan 19 2:50 pm, Stockerau, Weather by CustomWeather, © 2017

Note: Actual official high and low records may vary slightly from our data, if they occured in-between our weather recording intervals... More about our weather records

Advertising

Stockerau Weather History for the Previous 24 Hours

Scroll right to see more
 ConditionsComfort  
Time TempWeatherWind HumidityBarometerVisibility
2:50 pm
Thu, Jan 19
25 °FPassing clouds.2 mph74%30.63 "Hg4 mi
2:20 pm25 °FPassing clouds.3 mph74%30.63 "Hg4 mi
1:50 pm25 °FPassing clouds.2 mph74%30.63 "Hg4 mi
1:20 pm25 °FScattered clouds.2 mph74%30.63 "Hg4 mi
12:50 pm25 °FScattered clouds.2 mph69%30.63 "Hg4 mi
12:20 pm23 °FScattered clouds.3 mph80%30.66 "Hg4 mi
11:20 am21 °FPartly sunny.3 mph80%30.66 "Hg4 mi
10:20 am19 °FPartly sunny.3 mph86%30.66 "Hg4 mi
9:50 am19 °FPartly sunny.3 mph79%30.69 "Hg4 mi
9:20 am19 °FIce fog.3 mph79%30.66 "Hg3 mi
8:50 am18 °FIce fog.2 mph86%30.66 "Hg3 mi
8:20 am18 °FIce fog.2 mph86%30.66 "Hg3 mi
7:50 am18 °FIce fog.2 mph86%30.66 "Hg3 mi
7:20 am18 °FIce fog.2 mph86%30.66 "Hg3 mi
6:50 am18 °FIce fog.5 mph86%30.66 "Hg3 mi
5:50 am16 °FIce fog.3 mph93%30.63 "Hg3 mi
4:50 am16 °FIce fog.2 mph93%30.66 "Hg3 mi
9:50 pm
Wed, Jan 18
19 °FClear.1 mph86%30.66 "Hg4 mi
8:50 pm21 °FClear.1 mph80%30.63 "Hg4 mi
7:50 pm21 °FClear.3 mph86%30.63 "Hg4 mi
6:50 pm23 °FClear.5 mph80%30.63 "Hg5 mi
5:50 pm25 °FPassing clouds.6 mph74%30.60 "Hg6 mi
4:50 pm27 °FPassing clouds.3 mph74%30.60 "Hg6 mi
Weather by CustomWeather, © 2017

See weather overviewHow to use our weather pages